Regional Weather Roundup
Issued by NWS

Home | Current Version | Previous Version | Graphics & Text | Print | Product List | Glossary Off
Versions: 1 2 3 4 5 6 7 8 9 10 11 12 13 14 15 16 17 18 19 20 21 22 23 24 25 26 27 28 29 30 31 32 33 34 35 36 37 38 39 40 41 42 43 44 45 46 47 48 49 50

681
ASUS43 KMPX 202301
RWRMN
WEATHER ROUNDUP FOR MINNESOTA
NATIONAL WEATHER SERVICE TWIN CITIES/CHANHASSEN MN
600 PM CDT SUN AUG 20 2017


NOTE: "FAIR" INDICATES FEW OR NO CLOUDS BELOW 12,000 FEET WITH NO
SIGNIFICANT WEATHER AND/OR OBSTRUCTIONS TO VISIBILITY. N/A MEANS
CURRENT SKY AND/OR WEATHER CONDITIONS ARE NOT AVAILABLE.

MNZ060>063-068>070-210000-
   Twin Cities Metro

CITY           SKY/WX    TMP DP  RH WIND       PRES   REMARKS
TWIN CITIES    CLOUDY    82  67  60 NW10      29.94R
ST PAUL        PTSUNNY   82  69  64 SW6       29.93R
CRYSTAL        CLOUDY    80  63  55 NW9       29.94R
BLAINE         CLOUDY    82  66  57 NW12      29.94R
LAKEVILLE      MOSUNNY   81  72  74 W3        29.95R
EDEN PRAIRIE   CLOUDY    82  68  62 NW7       29.94R
SOUTH ST PAUL  PTSUNNY   82  68  61 SW3       29.93R
LAKE ELMO      FAIR      81  70  69 N3        29.94S
$$
MNZ001>005-007-008-013>017-022>024-027-028-210000-
   Northwest Minnesota

CITY           SKY/WX    TMP DP  RH WIND       PRES   REMARKS
BEMIDJI        MOSUNNY   72  46  40 W6        29.98R
HALLOCK        SUNNY     77  36  22 W8        29.95S
ROSEAU         SUNNY     75  43  31 W7        29.95S
WARROAD        SUNNY     75  48  38 W7        29.95R
CROOKSTON      SUNNY     77  43  29 NW8       29.98R
FOSSTON        CLOUDY    79  45  29 W6        29.99S
DETROIT LAKES  CLOUDY    70  52  52 CALM      30.03R
MOORHEAD       CLOUDY    73  48  40 W3        30.00S
PARK RAPIDS    MOSUNNY   72  52  49 W9        30.00R
MAHNOMEN       FAIR      73  52  48 NW7       29.99S
$$
MNZ006-009>011-018-025>026-210000-
   North Central Minnesota

CITY           SKY/WX    TMP DP  RH WIND       PRES   REMARKS
BAUDETTE       SUNNY     75  48  38 W9        29.94R
FLAG ISLAND    HAZE      75  46  35 W6        29.91S VSB 1
INTL FALLS     PTSUNNY   73  48  41 W10       29.93R
WASKISH        MOSUNNY   75  52  43 W12       29.96R
BIG FORK       SUNNY     73  50  43 W7        29.95R
LONGVILLE      SUNNY     72  57  60 CALM      29.98R
GRAND RAPIDS   SUNNY     72  54  53 W10G16    29.99R
CRANE LAKE     SUNNY     72  48  43 W6        29.94R
ORR            SUNNY     73  48  40 NW9       29.92R
COOK           MOSUNNY   73  55  53 W3        29.95R
WALKER         FAIR      70  53  55 W5        29.99R
$$
MNZ012-019>021-037-210000-
   Northeast Minnesota

CITY           SKY/WX    TMP DP  RH WIND       PRES   REMARKS
DULUTH         MOSUNNY   73  57  57 NW13      29.95R
ELY            SUNNY     72  50  46 W8        29.93R
HIBBING        SUNNY     71  54  54 W7        29.95R
EVELETH        SUNNY     73  43  33 W7        29.97R
DULUTH HARBOR  MOSUNNY   79  63  57 W12       29.92R
TWO HARBORS    CLOUDY    77  63  61 CALM      29.91R
SILVER BAY     PTSUNNY   75  61  60 W5        29.90R
GRAND MARAIS     N/A     68  64  87 SW6       29.85R
G MARAIS ARPRT CLOUDY    72  54  53 W8        29.92R
$$
MNZ029>031-032-039>041-046>048-054>057-064-210000-
   West Central Minnesota

CITY           SKY/WX    TMP DP  RH WIND       PRES   REMARKS
FERGUS FALLS   CLOUDY    70  57  64 NW7       30.01S
WHEATON        CLOUDY    72  57  60 CALM      30.03F
MORRIS         CLOUDY    72  63  73 W5        30.02S
ALEXANDRIA     CLOUDY    73  55  53 W8        30.05
ELBOW LAKE     FAIR      70  58  65 NW5       30.02F
WADENA         MOSUNNY   72  57  60 W6        30.02R
GLENWOOD       CLOUDY    72  59  64 W7        30.04R
APPLETON       MOSUNNY   72  59  64 NW8       30.01S
BENSON         CLOUDY    73  61  64 N9        30.03R
ORTONVILLE     CLOUDY    70  57  64 MISG      30.03S
MADISON        MOSUNNY   73  61  64 N8        30.02S
WILLMAR        FAIR      75  64  69 NW8       30.01R
$$
MNZ033>034-036-042>043-049>051-058-059-210000-
   Central Minnesota

CITY           SKY/WX    TMP DP  RH WIND       PRES   REMARKS
ST CLOUD       CLOUDY    77  63  61 NW6       29.98R
SAUK CENTRE    FAIR      74  58  57 W3        30.01S
PAYNESVILLE    CLOUDY    75  62  64 NW9       30.00R
AITKIN         SUNNY     73  55  53 W3        29.97R
PINE RIVER     SUNNY     70  54  56 W3        30.02R
BRAINERD       SUNNY     74  55  51 VRB3      29.98S
STAPLES        SUNNY     73  55  53 W5        30.00R
LONG PRAIRIE   FAIR      73  57  56 SW5       30.01S
LITTLE FALLS   SUNNY     73  54  49 NW3       30.00R
LITCHFIELD     PTSUNNY   75  64  69 N6        29.99R
BUFFALO        PTSUNNY   76  64  65 NW6       29.97R
MAPLE LAKE     MOSUNNY   76  67  73 NW7       29.99R
HUTCHINSON     SUNNY     76  68  75 NW3       29.99R
$$
MNZ037-044-045-052-053-210000-
   East Central Minnesota

CITY           SKY/WX    TMP DP  RH WIND       PRES   REMARKS
PRINCETON      MOSUNNY   79  63  57 NW5       29.96S
MORA           SUNNY     73  59  60 NW7       29.97F
CAMBRIDGE      MOSUNNY   79  63  57 NW7       29.96R
RUSH CITY      CLOUDY    76  64  65 NW5       29.96R HAZE
MOOSE LAKE     SUNNY     75  57  53 W3        29.95R
HINCKLEY       FAIR      77  64  65 W5        29.96S
CLOQUET        SUNNY     73  54  49 W7        29.96R
MCGREGOR       SUNNY     73  55  53 W7        29.98R
$$
MNZ071>073-080-081-089-090-097-098-210000-
   Southwest Minnesota

CITY           SKY/WX    TMP DP  RH WIND       PRES   REMARKS
MONTEVIDEO     MOSUNNY   73  63  68 N7        30.02R
GRANITE FALLS  PTSUNNY   74  65  74 NW7       30.03R
CANBY          CLOUDY    73  59  60 CALM      30.03S
MARSHALL       PTSUNNY   71  64  78 N9        30.02R
REDWOOD FALLS  PTSUNNY   74  64  71 NW10      29.99R
OLIVIA         MOSUNNY   73  66  78 NW6       30.00R
PIPESTONE      SUNNY     77  61  57 NE12G17   30.02R
WINDOM         SUNNY     79  68  69 N6        29.99R
WORTHINGTON    PTSUNNY   78  69  73 N6        30.00R
JACKSON        MOSUNNY   79  70  73 CALM      29.99R
TRACY          CLOUDY    74  66  76 N8        30.01S
SLAYTON        PTSUNNY   75  62  62 N9        30.02R
$$
MNZ065>067-074>077-082>085-091>093-210000-
   South Central Minnesota

CITY           SKY/WX    TMP DP  RH WIND       PRES   REMARKS
MANKATO        MOSUNNY   81  69  67 NW5       29.96S
NEW ULM        SUNNY     81  68  65 NW5       29.97R
ST JAMES       SUNNY     81  70  69 CALM      29.97R
FAIRMONT       SUNNY     83  70  64 N3        29.96
GLENCOE        CLOUDY    77  72  85 NW5       29.96R
FARIBAULT      SUNNY     82  70  65 W3        29.96S
OWATONNA       SUNNY     82  72  69 W7        29.96S
WASECA         MOSUNNY   79  70  73 W3        29.97S
ALBERT LEA     MOSUNNY   84  72  65 CALM      29.96S
$$
MNZ078>079-086>088-094>096-210000-
   Southeast Minnesota

CITY           SKY/WX    TMP DP  RH WIND       PRES   REMARKS
ROCHESTER      PTSUNNY   82  69  64 CALM      29.98R
RED WING       SUNNY     84  64  51 SW5       29.92S
STANTON        SUNNY     83  69  61 SW6       29.94R
DODGE CENTER   PTSUNNY   81  66  61 W8        29.97R
WINONA         PTSUNNY   81  68  65 SW3       29.95R
AUSTIN         SUNNY     82  66  57 NW3       29.96R
PRESTON        MOSUNNY   82  65  57 S6        29.99R
$$
ABBREVIATIONS USED IN REMARKS
   TC - TEMPERATURES IN CELSIUS
  WCI - WIND CHILL INDEX
   HX - HEAT INDEX
  VSB - VISIBILITY
$$




USA.gov is the U.S. government's official web portal to all federal, state and local government web resources and services.